EW7806 Weather Reports


Display with metric or nautical units.
time (UTC)temp
F
wind
direction
speed
MPH
gust
MPH
rain 1hr
in
rain 24hr
in
rain mn
in
humidity
%
barometer
mb
20260508111106 65 41 1.0 10.0 0.00 0.00 0.00 54 1018.7
20260508110104 65 27 1.0 5.0 0.00 0.00 0.00 56 1018.7
20260508105546 65 53 0.0 7.0 0.00 0.00 0.00 55 1018.8
20260508105037 65 54 0.0 5.0 0.00 0.00 0.00 56 1018.8
20260508104533 64 59 0.0 5.0 0.00 0.00 0.00 56 1018.7
20260508104042 64 29 1.0 5.0 0.00 0.00 0.00 58 1018.7
20260508103533 63 53 2.0 10.0 0.00 0.00 0.00 59 1018.8
20260508103028 63 357 2.0 11.0 0.00 0.00 0.00 59 1018.9
20260508102518 62 49 2.0 11.0 0.00 0.00 0.00 60 1018.9
20260508102025 63 39 1.0 6.0 0.00 0.00 0.00 60 1018.9
20260508101458 63 34 1.0 9.0 0.00 0.00 0.00 60 1018.9
20260508100956 63 109 1.0 9.0 0.00 0.00 0.00 60 1019.0
20260508100451 62 49 1.0 11.0 0.00 0.00 0.00 61 1018.9
20260508095932 62 46 1.0 11.0 0.00 0.00 0.00 61 1018.9
20260508095434 62 68 1.0 9.0 0.00 0.00 0.00 62 1018.9
20260508094934 61 32 1.0 7.0 0.00 0.00 0.00 62 1019.0
20260508094405 61 3 1.0 9.0 0.00 0.00 0.00 62 1019.0
20260508093905 61 40 1.0 9.0 0.00 0.00 0.00 64 1019.0
20260508093406 61 42 0.0 7.0 0.00 0.00 0.00 64 1019.0
20260508092905 61 30 1.0 7.0 0.00 0.00 0.00 64 1019.0
20260508092406 61 22 1.0 8.0 0.00 0.00 0.00 64 1019.0
20260508091904 60 103 1.0 8.0 0.00 0.00 0.00 64 1018.9
20260508091333 61 13 1.0 7.0 0.00 0.00 0.00 65 1019.0
20260508090332 60 55 1.0 7.0 0.00 0.00 0.00 67 1018.9
20260508085809 60 35 1.0 6.0 0.00 0.00 0.00 67 1018.9
20260508085307 59 27 1.0 6.0 0.00 0.00 0.00 68 1018.9
20260508084301 58 45 1.0 7.0 0.00 0.00 0.00 71 1018.9
20260508083305 56 17 1.0 6.0 0.00 0.00 0.00 75 1019.0
20260508082801 56 79 1.0 6.0 0.00 0.00 0.00 75 1018.9
20260508082301 55 39 1.0 7.0 0.00 0.00 0.00 77 1018.9
20260508081807 54 24 2.0 8.0 0.00 0.00 0.00 76 1019.0
20260508081233 54 67 2.0 10.0 0.00 0.00 0.00 77 1019.0
20260508080735 54 51 1.0 10.0 0.00 0.00 0.00 76 1019.0
20260508075208 54 45 1.0 6.0 0.00 0.00 0.00 79 1019.0
20260508074706 53 58 1.0 6.0 0.00 0.00 0.00 80 1019.0
20260508074203 53 92 1.0 5.0 0.00 0.00 0.00 80 1019.0
20260508073704 53 60 1.0 5.0 0.00 0.00 0.00 81 1019.0
20260508072704 53 30 1.0 8.0 0.00 0.00 0.00 82 1019.0
20260508072207 52 46 1.0 8.0 0.00 0.00 0.00 83 1019.0
20260508071135 52 42 2.0 8.0 0.00 0.00 0.00 83 1018.9
20260508070632 52 20 2.0 8.0 0.00 0.00 0.00 83 1018.9
20260508070203 52 27 2.0 8.0 0.00 0.00 0.00 83 1018.8
20260508065631 52 45 1.0 8.0 0.00 0.00 0.00 84 1018.8
20260508065150 52 32 1.0 3.0 0.00 0.00 0.00 84 1018.8
20260508064635 51 27 1.0 6.0 0.00 0.00 0.00 84 1018.7
20260508064128 51 75 1.0 6.0 0.00 0.00 0.00 85 1018.7
20260508063608 51 70 0.0 5.0 0.00 0.00 0.00 85 1018.7
20260508063106 51 23 0.0 6.0 0.00 0.00 0.00 86 1018.6
20260508062605 51 43 1.0 6.0 0.00 0.00 0.00 86 1018.6
20260508062112 51 18 1.0 6.0 0.00 0.00 0.00 86 1018.5
20260508061604 51 32 0.0 6.0 0.00 0.00 0.00 86 1018.5
20260508061040 51 52 0.0 2.0 0.00 0.00 0.00 87 1018.5
20260508060034 51 56 0.0 2.0 0.00 0.00 0.00 87 1018.4
20260508055535 51 52 0.0 2.0 0.00 0.00 0.00 87 1018.4
20260508054532 50 49 0.0 4.0 0.00 0.00 0.00 88 1018.4
20260508054043 50 46 0.0 2.0 0.00 0.00 0.00 88 1018.3
20260508053533 50 37 0.0 1.0 0.00 0.00 0.00 88 1018.3
20260508053037 50 52 0.0 1.0 0.00 0.00 0.00 88 1018.2
20260508052519 50 44 0.0 1.0 0.00 0.00 0.00 88 1018.2
20260508052031 50 72 0.0 1.0 0.00 0.00 0.00 88 1018.2
20260508051453 50 72 0.0 1.0 0.00 0.00 0.00 88 1018.2
20260508050942 50 58 0.0 1.0 0.00 0.00 0.00 88 1018.1
20260508050441 50 37 0.0 2.0 0.00 0.00 0.00 88 1018.0
20260508045915 50 37 0.0 2.0 0.00 0.00 0.00 89 1018.0
20260508045424 50 37 0.0 1.0 0.00 0.00 0.00 89 1017.9
20260508044353 50 95 0.0 1.0 0.00 0.00 0.00 89 1017.9
20260508043847 49 44 0.0 0.0 0.00 0.00 0.00 89 1017.9
20260508043340 49 75 0.0 0.0 0.00 0.00 0.00 89 1017.9
20260508042834 49 41 0.0 1.0 0.00 0.00 0.00 89 1017.9
20260508041836 49 41 0.0 0.0 0.00 0.00 0.00 89 1017.9
20260508041332 49 41 0.0 0.0 0.00 0.00 0.00 89 1017.8
20260508040815 49 41 0.0 0.0 0.00 0.00 0.00 89 1017.9
20260508040305 49 41 0.0 0.0 0.00 0.00 0.00 89 1017.9
20260508035807 49 41 0.0 0.0 0.00 0.00 0.00 89 1017.9
20260508035307 49 41 0.0 0.0 0.00 0.00 0.00 89 1017.8
20260508034806 49 40 0.0 0.0 0.00 0.00 0.00 89 1017.8
20260508034237 49 41 0.0 0.0 0.00 0.00 0.00 89 1017.8
20260508033734 49 41 0.0 0.0 0.00 0.00 0.00 89 1017.9
20260508032713 49 41 0.0 0.0 0.00 0.00 0.00 89 1017.8
20260508032207 49 41 0.0 0.0 0.00 0.00 0.00 89 1017.8
20260508031714 49 41 0.0 0.0 0.00 0.00 0.00 88 1017.7
20260508031207 49 41 0.0 0.0 0.00 0.00 0.00 88 1017.7
20260508030207 49 41 0.0 0.0 0.00 0.00 0.00 88 1017.7
20260508025635 49 41 0.0 0.0 0.00 0.00 0.00 88 1017.6
20260508025133 49 41 0.0 0.0 0.00 0.00 0.00 88 1017.7
20260508024636 49 41 0.0 0.0 0.00 0.00 0.00 88 1017.6
20260508024112 49 40 0.0 0.0 0.00 0.00 0.00 88 1017.6
20260508023106 49 41 0.0 0.0 0.00 0.00 0.00 88 1017.6
20260508022605 49 40 0.0 0.0 0.00 0.00 0.00 88 1017.7
20260508022043 49 40 0.0 0.0 0.00 0.00 0.00 88 1017.7
20260508021044 49 37 0.0 1.0 0.00 0.00 0.00 88 1017.7
20260508020533 49 36 0.0 1.0 0.00 0.00 0.00 88 1017.7
20260508020036 48 37 0.0 1.0 0.00 0.00 0.00 88 1017.7
20260508015529 48 37 0.0 1.0 0.00 0.00 0.00 88 1017.7
20260508015038 48 49 0.0 0.0 0.00 0.00 0.00 88 1017.6
20260508014031 48 49 0.0 0.0 0.00 0.00 0.00 88 1017.6
20260508013525 48 49 0.0 0.0 0.00 0.00 0.00 88 1017.6
20260508013036 48 58 0.0 0.0 0.00 0.00 0.00 88 1017.6
20260508012524 48 58 0.0 0.0 0.00 0.00 0.00 88 1017.7
20260508011524 48 58 0.0 0.0 0.00 0.00 0.00 88 1017.7
20260508011034 48 58 0.0 0.0 0.00 0.00 0.00 88 1017.7
20260508010452 48 58 0.0 0.0 0.00 0.00 0.00 88 1017.8
20260508005941 48 58 0.0 0.0 0.00 0.00 0.00 88 1017.8
20260508005418 48 58 0.0 0.0 0.00 0.00 0.00 88 1017.8
20260508004914 48 58 0.0 0.0 0.00 0.00 0.00 88 1017.8
20260508004407 48 58 0.0 0.0 0.00 0.00 0.00 88 1017.8
20260508003908 48 58 0.0 0.0 0.00 0.00 0.00 88 1017.9
20260508003405 48 58 0.0 0.0 0.00 0.00 0.00 88 1017.9
20260508002849 48 58 0.0 0.0 0.00 0.00 0.00 88 1017.9
20260508001836 49 58 0.0 0.0 0.00 0.00 0.00 87 1017.8
20260508000808 49 58 0.0 0.0 0.00 0.00 0.00 87 1017.8
20260508000258 49 58 0.0 0.0 0.00 0.00 0.00 87 1017.8
20260507235755 49 58 0.0 0.0 0.00 0.00 0.00 87 1017.7
20260507234733 49 58 0.0 0.0 0.00 0.00 0.00 87 1017.8
20260507233723 49 58 0.0 0.0 0.00 0.00 0.00 87 1017.9
20260507232130 49 58 0.0 0.0 0.00 0.00 0.00 87 1017.9
20260507231610 49 58 0.0 0.0 0.00 0.00 0.00 87 1017.9
20260507231109 49 58 0.0 0.0 0.00 0.00 0.00 87 1017.9
20260507230607 49 58 0.0 0.0 0.00 0.00 0.00 87 1017.9
20260507230111 49 58 0.0 0.0 0.00 0.00 0.00 87 1017.9
20260507225607 49 58 0.0 0.0 0.00 0.00 0.00 86 1018.0
20260507225107 49 58 0.0 0.0 0.00 0.00 0.00 86 1017.9
20260507224610 49 58 0.0 0.0 0.00 0.00 0.00 86 1017.9
20260507224049 49 58 0.0 0.0 0.00 0.00 0.00 86 1017.9
20260507223540 49 58 0.0 0.0 0.00 0.00 0.00 86 1017.9
20260507223041 49 58 0.0 0.0 0.00 0.00 0.00 86 1017.9
20260507222537 49 58 0.0 0.0 0.00 0.00 0.00 85 1017.9
20260507222040 50 58 0.0 0.0 0.00 0.00 0.00 85 1017.9
20260507221518 50 58 0.0 0.0 0.00 0.00 0.00 85 1017.9
20260507220524 50 58 0.0 0.0 0.00 0.00 0.00 84 1017.9
20260507220030 50 58 0.0 0.0 0.00 0.00 0.00 84 1017.9
20260507215022 50 58 0.0 0.0 0.00 0.00 0.00 84 1017.9
20260507214025 51 58 0.0 0.0 0.00 0.00 0.00 84 1018.0
20260507213521 51 58 0.0 0.0 0.00 0.00 0.00 83 1017.9
20260507213023 51 58 0.0 0.0 0.00 0.00 0.00 83 1017.9
20260507212028 51 58 0.0 0.0 0.00 0.00 0.00 82 1017.9
20260507211523 51 58 0.0 0.0 0.00 0.00 0.00 82 1017.9
20260507211019 51 57 0.0 0.0 0.00 0.00 0.00 81 1017.9
20260507210523 51 62 0.0 0.0 0.00 0.00 0.00 80 1017.8
20260507210030 51 62 0.0 1.0 0.00 0.00 0.00 80 1017.8
20260507205505 51 54 0.0 1.0 0.00 0.00 0.00 79 1017.9
20260507205000 51 39 0.0 1.0 0.00 0.00 0.00 78 1017.8
20260507204500 51 22 0.0 1.0 0.00 0.00 0.00 78 1017.9
20260507203957 51 61 0.0 1.0 0.00 0.00 0.00 78 1017.8
20260507202947 51 69 0.0 0.0 0.00 0.00 0.00 77 1017.7
20260507201437 51 64 0.0 0.0 0.00 0.00 0.00 76 1017.6
20260507200934 51 82 0.0 0.0 0.00 0.00 0.00 76 1017.5
20260507200434 52 79 0.0 0.0 0.00 0.00 0.00 75 1017.4
20260507195931 52 79 0.0 0.0 0.00 0.00 0.00 75 1017.4
20260507195433 52 79 0.0 0.0 0.00 0.00 0.00 75 1017.4
20260507194936 53 79 0.0 0.0 0.00 0.00 0.00 74 1017.4
20260507194441 53 79 0.0 0.0 0.00 0.00 0.00 74 1017.4
20260507193430 53 79 0.0 0.0 0.00 0.00 0.00 72 1017.3
20260507192903 53 79 0.0 0.0 0.00 0.00 0.00 72 1017.3
20260507192405 53 79 0.0 0.0 0.00 0.00 0.00 72 1017.3
20260507191907 54 79 0.0 0.0 0.00 0.00 0.00 71 1017.2
20260507191332 54 79 0.0 0.0 0.00 0.00 0.00 71 1017.2
20260507190832 54 79 0.0 0.0 0.00 0.00 0.00 70 1017.2
20260507190332 55 62 0.0 0.0 0.00 0.00 0.00 69 1017.2
20260507185833 55 62 0.0 0.0 0.00 0.00 0.00 69 1017.2
20260507185329 55 46 0.0 1.0 0.00 0.00 0.00 69 1017.2
20260507184831 55 44 0.0 1.0 0.00 0.00 0.00 68 1017.1
20260507183806 56 36 0.0 1.0 0.00 0.00 0.00 68 1017.0
20260507183307 56 32 0.0 1.0 0.00 0.00 0.00 67 1017.0
20260507182749 56 31 0.0 1.0 0.00 0.00 0.00 67 1016.9
20260507181731 56 51 0.0 1.0 0.00 0.00 0.00 66 1017.0
20260507180731 57 66 0.0 1.0 0.00 0.00 0.00 64 1017.1
20260507180232 57 60 0.0 0.0 0.00 0.00 0.00 64 1017.0
20260507175732 57 118 0.0 2.0 0.00 0.00 0.00 64 1017.1
20260507175219 57 231 0.0 2.0 0.00 0.00 0.00 63 1017.0
20260507174704 58 84 0.0 1.0 0.00 0.00 0.00 62 1016.9
20260507174202 58 55 0.0 2.0 0.00 0.00 0.00 61 1017.0
20260507173203 58 29 0.0 2.0 0.00 0.00 0.00 58 1017.0
20260507172631 58 313 0.0 2.0 0.00 0.00 0.00 58 1016.9
20260507171630 59 75 0.0 1.0 0.00 0.00 0.00 57 1016.8
20260507171105 59 281 0.0 1.0 0.00 0.00 0.00 57 1016.8
20260507170604 59 79 0.0 2.0 0.00 0.00 0.00 56 1016.8
20260507170104 59 77 0.0 2.0 0.00 0.00 0.00 56 1016.7
20260507165540 59 281 0.0 1.0 0.00 0.00 0.00 56 1016.8
20260507165032 59 34 0.0 2.0 0.00 0.00 0.00 56 1016.8
20260507164533 60 34 0.0 2.0 0.00 0.00 0.00 56 1016.8
20260507164037 60 68 0.0 1.0 0.00 0.00 0.00 55 1016.8
20260507163531 60 245 0.0 1.0 0.00 0.00 0.00 57 1016.8
20260507162524 60 20 0.0 2.0 0.00 0.00 0.00 55 1016.8
20260507162024 60 50 0.0 2.0 0.00 0.00 0.00 53 1016.7
20260507161527 60 50 0.0 2.0 0.00 0.00 0.00 53 1016.7
20260507161028 60 44 0.0 2.0 0.00 0.00 0.00 53 1016.7
20260507160515 60 60 0.0 2.0 0.00 0.00 0.00 54 1016.6
20260507160015 60 61 0.0 2.0 0.00 0.00 0.00 54 1016.7
20260507155446 60 19 0.0 2.0 0.00 0.00 0.00 53 1016.7
20260507154943 61 38 0.0 1.0 0.00 0.00 0.00 53 1016.6
20260507154434 61 34 0.0 2.0 0.00 0.00 0.00 53 1016.6
20260507153935 61 271 0.0 2.0 0.00 0.00 0.00 54 1016.6
20260507153435 61 318 0.0 3.0 0.00 0.00 0.00 56 1016.5
20260507152932 61 105 0.0 3.0 0.00 0.00 0.00 56 1016.5
20260507152434 60 74 0.0 2.0 0.00 0.00 0.00 55 1016.5
20260507151407 60 68 0.0 1.0 0.00 0.00 0.00 56 1016.6
20260507150906 59 41 0.0 0.0 0.00 0.00 0.00 56 1016.5
20260507150408 59 300 0.0 1.0 0.00 0.00 0.00 57 1016.5
20260507145835 59 34 0.0 1.0 0.00 0.00 0.00 56 1016.5
20260507145334 59 66 0.0 1.0 0.00 0.00 0.00 58 1016.5
20260507144836 59 143 0.0 1.0 0.00 0.00 0.00 57 1016.5
20260507144328 59 72 0.0 1.0 0.00 0.00 0.00 57 1016.6
20260507143821 59 52 0.0 1.0 0.00 0.00 0.00 58 1016.6
20260507143307 59 243 0.0 1.0 0.00 0.00 0.00 58 1016.7
20260507142805 59 66 0.0 1.0 0.00 0.00 0.00 58 1016.6
20260507142307 60 40 0.0 1.0 0.00 0.00 0.00 56 1016.7
20260507141802 60 32 0.0 1.0 0.00 0.00 0.00 59 1016.7
20260507141233 60 100 0.0 2.0 0.00 0.00 0.00 58 1016.8
20260507140731 60 121 0.0 2.0 0.00 0.00 0.00 58 1016.6
20260507140232 60 67 0.0 1.0 0.00 0.00 0.00 56 1016.7
20260507135716 60 113 0.0 1.0 0.00 0.00 0.00 58 1016.7
20260507135212 60 150 0.0 1.0 0.00 0.00 0.00 56 1016.7
20260507134706 60 82 0.0 1.0 0.00 0.00 0.00 56 1016.8
20260507134135 60 75 0.0 2.0 0.00 0.00 0.00 56 1016.7
20260507133632 60 53 0.0 2.0 0.00 0.00 0.00 56 1016.6
20260507133133 59 35 0.0 2.0 0.00 0.00 0.00 56 1016.7
20260507132606 60 243 0.0 5.0 0.00 0.00 0.00 56 1016.8
20260507132108 60 244 0.0 5.0 0.00 0.00 0.00 57 1016.7
20260507131607 60 46 0.0 2.0 0.00 0.00 0.00 56 1016.7
20260507131049 60 62 0.0 4.0 0.00 0.00 0.00 56 1016.7
20260507130551 62 100 0.0 4.0 0.00 0.00 0.00 56 1016.7
20260507130039 62 110 0.0 4.0 0.00 0.00 0.00 56 1016.7
20260507125037 64 44 0.0 3.0 0.00 0.00 0.00 53 1016.6
20260507124533 64 44 0.0 3.0 0.00 0.00 0.00 53 1016.7
20260507124035 65 266 0.0 4.0 0.00 0.00 0.00 54 1016.7
20260507123535 65 39 0.0 4.0 0.00 0.00 0.00 54 1016.7
20260507123025 64 106 0.0 4.0 0.00 0.00 0.00 53 1016.7
20260507122029 63 49 0.0 3.0 0.00 0.00 0.00 57 1016.7
20260507121527 63 49 0.0 3.0 0.00 0.00 0.00 57 1016.7
20260507121028 62 355 0.0 3.0 0.00 0.00 0.00 59 1016.7
20260507120522 61 326 0.0 3.0 0.00 0.00 0.00 59 1016.7
20260507120015 61 58 0.0 3.0 0.00 0.00 0.00 58 1016.7
20260507114512 62 70 0.0 3.0 0.00 0.00 0.00 59 1016.7
20260507114017 62 63 0.0 2.0 0.00 0.00 0.00 60 1016.6
20260507113534 63 120 0.0 2.0 0.00 0.00 0.00 57 1016.6
20260507113026 64 60 0.0 2.0 0.00 0.00 0.00 57 1016.6
20260507112527 64 32 0.0 2.0 0.00 0.00 0.00 55 1016.5
20260507112027 64 60 0.0 4.0 0.00 0.00 0.00 55 1016.6
20260507111524 64 63 0.0 4.0 0.00 0.00 0.00 53 1016.6